When you browse on this site, cookies collect data to enhance your experience and personalize the content and advertising you see.
Visit our Privacy Policy to learn more. By continuing to use the site, you agree to this use of cookies and data.
  • In Czech Republic
  • List of Countries
  • For 7 days
  • Water Temperature
  • Weather Map
  • Weather Widgets
  • user-avatar
    Login

    Hourly Weather Kontuzla

    Today, 9 December, Monday

    Time Temperature Precipitation Wind Pressure Humidity
    00:00 -2°C° 0 mm 7 mps 748 mmHg 92%
    01:00 -2°C° 0 mm 7 mps 747 mmHg 94%
    02:00 -2°C° 0 mm 7 mps 748 mmHg 94%
    03:00 -2°C° 0 mm 7 mps 748 mmHg 94%
    04:00 -2°C° 0 mm 7 mps 748 mmHg 94%
    05:00 -2°C° 0 mm 7 mps 748 mmHg 93%
    06:00 -2°C° 0 mm 6 mps 748 mmHg 93%
    07:00 -2°C° 0 mm 6 mps 748 mmHg 93%
    08:00 -1°C° 0 mm 5 mps 748 mmHg 94%
    09:00 -1°C° 0 mm 5 mps 749 mmHg 95%
    10:00 -2°C° 0 mm 5 mps 749 mmHg 96%
    11:00 -2°C° 0 mm 5 mps 749 mmHg 95%
    12:00 -2°C° 0 mm 5 mps 750 mmHg 94%
    13:00 -2°C° 0 mm 5 mps 750 mmHg 94%
    14:00 -2°C° 0 mm 5 mps 750 mmHg 93%
    15:00 -2°C° 0 mm 5 mps 750 mmHg 93%
    16:00 -2°C° 0 mm 5 mps 750 mmHg 95%
    17:00 -2°C° 0 mm 5 mps 750 mmHg 95%
    18:00 -2°C° 0 mm 5 mps 750 mmHg 94%
    19:00 -2°C° 0 mm 5 mps 750 mmHg 93%
    20:00 -2°C° 0 mm 5 mps 750 mmHg 93%
    21:00 -2°C° 0 mm 5 mps 750 mmHg 93%
    22:00 -3°C° 0 mm 6 mps 750 mmHg 93%
    23:00 -3°C° 0 mm 6 mps 750 mmHg 92%

    Tomorrow, 10 December, Tuesday

    Time Temperature Precipitation Wind Pressure Humidity
    00:00 -3°C° 0 mm 6 mps 750 mmHg 92%
    01:00 -3°C° 0 mm 6 mps 750 mmHg 91%
    02:00 -3°C° 0 mm 6 mps 750 mmHg 91%
    03:00 -3°C° 0 mm 6 mps 750 mmHg 90%
    04:00 -3°C° 0 mm 6 mps 750 mmHg 89%
    05:00 -3°C° 0 mm 6 mps 750 mmHg 89%
    06:00 -2°C° 0 mm 5 mps 750 mmHg 89%
    07:00 -2°C° 0 mm 5 mps 750 mmHg 88%
    08:00 -2°C° 0 mm 5 mps 750 mmHg 89%
    09:00 -2°C° 0 mm 5 mps 750 mmHg 90%
    10:00 -2°C° 0 mm 5 mps 750 mmHg 90%
    11:00 -2°C° 0 mm 5 mps 750 mmHg 91%
    12:00 -1°C° 0 mm 5 mps 750 mmHg 92%
    13:00 -1°C° 0 mm 5 mps 750 mmHg 94%
    14:00 -1°C° 0 mm 5 mps 750 mmHg 94%
    15:00 -1°C° 0 mm 5 mps 750 mmHg 94%
    16:00 -2°C° 0 mm 5 mps 751 mmHg 95%
    17:00 -1°C° 0 mm 5 mps 751 mmHg 95%
    18:00 -1°C° 0 mm 4 mps 751 mmHg 96%
    19:00 -1°C° 0 mm 4 mps 751 mmHg 97%
    20:00 -2°C° 0 mm 4 mps 751 mmHg 96%
    21:00 -1°C° 0 mm 3 mps 751 mmHg 96%
    22:00 -1°C° 0 mm 3 mps 752 mmHg 96%
    23:00 -1°C° 0 mm 3 mps 751 mmHg 96%

    Day after tomorrow, 11 December, Wednesday

    Time Temperature Precipitation Wind Pressure Humidity
    00:00 -1°C° 0 mm 3 mps 751 mmHg 96%
    01:00 -1°C° 0 mm 3 mps 751 mmHg 95%
    02:00 -1°C° 0 mm 3 mps 751 mmHg 95%
    03:00 -1°C° 0 mm 3 mps 751 mmHg 96%
    04:00 -1°C° 0 mm 3 mps 751 mmHg 96%
    05:00 -1°C° 0 mm 3 mps 751 mmHg 95%
    06:00 -2°C° 0 mm 4 mps 750 mmHg 95%
    07:00 -2°C° 0 mm 4 mps 750 mmHg 95%
    08:00 -2°C° 0.1 mm 4 mps 750 mmHg 95%
    09:00 -2°C° 0.1 mm 4 mps 750 mmHg 96%
    10:00 -2°C° 0.1 mm 4 mps 750 mmHg 96%
    11:00 -2°C° 0 mm 4 mps 749 mmHg 95%
    12:00 -2°C° 0 mm 4 mps 749 mmHg 94%
    13:00 -2°C° 0 mm 4 mps 748 mmHg 93%
    14:00 -1°C° 0 mm 5 mps 748 mmHg 93%
    15:00 -1°C° 0 mm 5 mps 747 mmHg 93%
    16:00 -1°C° 0 mm 5 mps 747 mmHg 93%
    17:00 -2°C° 0.1 mm 5 mps 746 mmHg 94%
    18:00 -2°C° 0.1 mm 5 mps 746 mmHg 96%
    19:00 -2°C° 0.1 mm 5 mps 745 mmHg 97%
    20:00 -2°C° 0.5 mm 5 mps 745 mmHg 97%
    21:00 -2°C° 0.5 mm 5 mps 745 mmHg 97%
    22:00 -1°C° 0.5 mm 4 mps 745 mmHg 98%
    23:00 -2°C° 0.3 mm 5 mps 745 mmHg 95%

    12 December, Thursday

    Time Temperature Precipitation Wind Pressure Humidity
    00:00 -3°C° 0.3 mm 6 mps 745 mmHg 93%
    01:00 -4°C° 0.3 mm 7 mps 746 mmHg 90%
    02:00 -6°C° 0 mm 7 mps 746 mmHg 88%
    03:00 -7°C° 0 mm 7 mps 747 mmHg 85%
    04:00 -8°C° 0 mm 7 mps 748 mmHg 83%
    05:00 -9°C° 0 mm 7 mps 748 mmHg 83%
    06:00 -9°C° 0 mm 6 mps 749 mmHg 83%
    07:00 -10°C° 0 mm 6 mps 749 mmHg 83%
    08:00 -10°C° 0 mm 6 mps 750 mmHg 84%
    09:00 -10°C° 0 mm 6 mps 751 mmHg 84%
    10:00 -10°C° 0 mm 6 mps 751 mmHg 85%
    11:00 -9°C° 0 mm 6 mps 752 mmHg 84%
    12:00 -8°C° 0 mm 5 mps 752 mmHg 84%
    13:00 -8°C° 0 mm 5 mps 752 mmHg 83%
    14:00 -8°C° 0 mm 5 mps 752 mmHg 85%
    15:00 -9°C° 0 mm 4 mps 753 mmHg 86%
    16:00 -9°C° 0 mm 4 mps 753 mmHg 88%
    17:00 -8°C° 0 mm 3 mps 753 mmHg 89%
    18:00 -8°C° 0 mm 3 mps 754 mmHg 90%
    19:00 -9°C° 0 mm 3 mps 754 mmHg 91%
    20:00 -9°C° 0 mm 3 mps 754 mmHg 90%
    21:00 -9°C° 0 mm 3 mps 754 mmHg 90%
    22:00 -9°C° 0 mm 3 mps 755 mmHg 89%
    23:00 -9°C° 0 mm 3 mps 755 mmHg 90%

    13 December, Friday

    Time Temperature Precipitation Wind Pressure Humidity
    00:00 -8°C° 0 mm 2 mps 755 mmHg 90%
    01:00 -8°C° 0 mm 2 mps 755 mmHg 91%
    02:00 -9°C° 0 mm 2 mps 755 mmHg 91%
    03:00 -9°C° 0 mm 2 mps 755 mmHg 92%
    04:00 -9°C° 0 mm 2 mps 755 mmHg 92%
    05:00 -9°C° 0 mm 2 mps 755 mmHg 92%
    06:00 -9°C° 0 mm 2 mps 755 mmHg 92%
    07:00 -9°C° 0 mm 2 mps 755 mmHg 93%
    08:00 -8°C° 0 mm 1 mps 756 mmHg 92%
    09:00 -8°C° 0 mm 1 mps 756 mmHg 92%
    10:00 -8°C° 0 mm 1 mps 756 mmHg 91%
    11:00 -8°C° 0 mm 1 mps 756 mmHg 90%
    12:00 -7°C° 0 mm 1 mps 756 mmHg 89%
    13:00 -7°C° 0 mm 1 mps 756 mmHg 88%
    14:00 -7°C° 0 mm 1 mps 756 mmHg 88%
    15:00 -7°C° 0 mm 1 mps 756 mmHg 88%
    16:00 -8°C° 0 mm 1 mps 756 mmHg 88%
    17:00 -8°C° 0 mm 1 mps 756 mmHg 87%
    18:00 -8°C° 0 mm 0 mps 756 mmHg 87%
    19:00 -8°C° 0 mm 0 mps 756 mmHg 86%
    20:00 -8°C° 0 mm 0 mps 757 mmHg 86%
    21:00 -8°C° 0 mm 0 mps 757 mmHg 86%
    22:00 -8°C° 0 mm 0 mps 757 mmHg 86%
    23:00 -8°C° 0 mm 0 mps 757 mmHg 85%

    14 December, Saturday

    Time Temperature Precipitation Wind Pressure Humidity
    00:00 -9°C° 0 mm 0 mps 757 mmHg 85%
    01:00 -9°C° 0 mm 0 mps 757 mmHg 85%
    02:00 -9°C° 0 mm 0 mps 757 mmHg 85%
    03:00 -9°C° 0 mm 0 mps 757 mmHg 85%
    04:00 -9°C° 0 mm 0 mps 757 mmHg 85%
    05:00 -9°C° 0 mm 0 mps 757 mmHg 85%
    06:00 -9°C° 0 mm 0 mps 757 mmHg 84%
    07:00 -9°C° 0 mm 0 mps 757 mmHg 84%
    08:00 -9°C° 0 mm 0 mps 758 mmHg 85%
    09:00 -9°C° 0 mm 0 mps 758 mmHg 85%
    10:00 -9°C° 0 mm 0 mps 758 mmHg 85%
    11:00 -8°C° 0 mm 0 mps 758 mmHg 85%
    12:00 -8°C° 0 mm 1 mps 758 mmHg 84%
    13:00 -7°C° 0 mm 1 mps 758 mmHg 84%
    14:00 -8°C° 0 mm 1 mps 758 mmHg 84%
    15:00 -8°C° 0 mm 1 mps 758 mmHg 85%
    16:00 -9°C° 0 mm 1 mps 758 mmHg 85%
    17:00 -9°C° 0 mm 1 mps 758 mmHg 85%
    18:00 -9°C° 0 mm 1 mps 758 mmHg 84%
    19:00 -9°C° 0 mm 1 mps 758 mmHg 84%
    20:00 -9°C° 0 mm 1 mps 758 mmHg 84%
    21:00 -10°C° 0 mm 1 mps 758 mmHg 84%
    22:00 -10°C° 0 mm 1 mps 758 mmHg 84%
    23:00 -10°C° 0 mm 1 mps 758 mmHg 83%
    Show more